ATLAS 5 CENTAUR DEB, 43980

Orbit data source: Space-Track

ATLAS 5 CENTAUR DEB, 43980 is space debris in HEO originally from a launch on Wed, 17 Sep 2014 UTC launched from the Air Force Eastern Test Range (AFETR). Debris objects in space refer to the collection of defunct objects orbiting the Earth. Examples of debris include non-operational satellites, rocket bodies, and fragments generated from explosions, collisions, or faulty payload assembly.

Loading next visibility...
Identifier
43980, 2014-055AK
Orbit
HEO
Last TLE update
3 days ago
Origin
Flag of USUnited Launch Alliance/Lockheed Martin (US)
Manufacturer
Unknown
Mission
Spacecraft
Bus & Motor
Unknown
Mass
Unknown
Launch date (UTC)
2014-09-17 (11 years ago)
Launch vehicle
Unknown
Launch site
Air Force Eastern Test Range (AFETR)
Object type
Payload
Rocket body
Debris
Shape & HBR
Unknown
Radar Cross Section
Medium (>0.1 m² and <1 m²)

Expand to show TLE details & history

TLE from 3 days ago
0 ATLAS 5 CENTAUR DEB
1 43980U 14055AK  25180.80083742 -.00000044  00000-0  00000-0 0  9996
2 43980  19.4814 181.4159 4856898  95.6895 319.4610  1.83780394 45705
Epoch: 2025-06-29T19:13Z
TLE epoch observation values (Epoch: 2025-06-29T19:13:12.353Z)
Latitude
0.00001°
Longitude
-25.02965°
Altitude
16,201.726 km
Speed
4.599 km/s
True Right ascension
12h 05m 33s
True Declination
0° 00' 00"
Sunlit
Object was in daylight at epoch
Visualization orbit readout
Latitude
-16.76081°
Longitude
-147.03978°
Altitude
28,921.368 km
Speed
2.903 km/s
Apparent Right ascension
04h 14m 53s
Apparent Declination
-20° 36' 00"
Sunlit
Object is in daylight
Visualization observer readout
Local Sidereal Time
18:20:54
Azimuth
63.653° ENE
Elevation
-56.917°
Doppler factor
1
Orbital elements
Apogee altitude
35,452.476 km
Perigee altitude
8,102.619 km
Semi-major axis
28,155.684 km
Eccentricity
0.48569
Inclination
19.4814°
RAAN
181.4159°
Arg. of periapsis
95.6895°
True anomaly
Unknown
Mean anomaly
319.461°
Eccentric anomaly
Unknown
Mean motion
0.4594 °/min
Orbital period
783.63 mins
BSTAR
0
Loading maneuver chart data...
Loading SW <> Apogee altitude chart data...
Loading historical data...
Loading historical data...
Loading historical data...
Loading historical data...
Loading historical data...
Loading historical data...
Loading historical data...

ATLAS 5 CENTAUR DEB Visibility forecast

Observer location: undefined°, undefined°

Span
Click to sort rows by Start time (UTC) header in descending order
Start Az.
Max El. time (UTC)
Max El. Az.
Max El.
End time (UTC)
End Az.
124 mins2025-07-04 03:32:12.853Z243.712° WSW2025-07-04 04:54:12.853Z173.876° S38.982°2025-07-04 05:36:12.853Z101.667° ESE
|